Погода в Байчэне

Китай     45°36′58″N   122°50′57″E
темп.,
°C
ветер,
м/с
пор.,
м/с
влажн.,
%
обл.,
%
осадки,
мм/ч
давл.,
гПа
погр.,
м
9 мая, вс
вс923:00+10зсз34545 0.0 100272
02:00+8зсз48625 0.0 1003154
05:00+7ссз49585 0.0 1005182
08:00+13ссз47412 0.0 10061368
11:00+16с582896 0.0 10062808
14:00+18ссз362198 0.0 10053119
17:00+18с142193 0.0 10063021
20:00+14в343231 0.0 100853
10 мая, пн
пн1023:00+13юз22364 0.0 100914
02:00+11з114217 0.0 100910
05:00+10с11450 0.0 101010
08:00+15ссв22330 0.0 1011412
11:00+20зюз132285 0.0 10112314
14:00+21з35187 0.0 10103222
17:00+21ю23198 0.0 10092355
20:00+17ююв46281 0.0 101088
11 мая, вт
вт1123:00+15ююв4113423 0.0 1010186
02:00+14ююв6163417 0.0 1010364
05:00+12ююв61453100 0.0 1009293
08:00+18ю91548100 0.0 1008749
11:00+22ю111535100 0.0 10061352
14:00+24ю111629100 0.0 10022287
17:00+24ю13212495 0.0 9992187
20:00+20ююз16243089 0.0 9991285
12 мая, ср
ср1223:00+15зсз71248100 0.0 1002854
02:00+14з7124447 0.0 1004803
05:00+11юз411510 0.0 1005353
08:00+16з811370 0.0 10061191
11:00+20з810265 0.0 10062668
14:00+23з8121797 0.0 10044211
17:00+23з710175 0.0 10043695
20:00+18з48250 0.0 1007122
13 мая, чт
чт1323:00+15з46300 0.0 100878
02:00+13зсз333216 0.0 100933
05:00+13юз3332100 0.0 100931
08:00+19зюз222099 0.0 1009280
11:00+22ю6718100 0.0 10081317
14:00+21ююз109413 0.0 10071779
17:00+19ю9956100 0.0 10061190
20:00+14ю711676 0.0 1007577